Fort Madison, IA

7:23 AM CST on January 21, 2018 (GMT -0600)
Fort Madison Municipal

Weather History for KFSW - March, 2014

Change the Weather History Date:

Saturday, March 8, 2014

  Actual Average Record
Temperature  
Mean Temperature 32 °F -  
Max Temperature 35 °F 47 °F 71 °F (1987)
Min Temperature 28 °F 27 °F 6 °F (1967)
Degree Days  
Heating Degree Days 34    
Moisture  
Dew Point 31 °F    
Average Humidity 90    
Maximum Humidity 100    
Minimum Humidity 75    
Precipitation  
Precipitation 0.00 in - - ()
Sea Level Pressure  
Sea Level Pressure 30.20 in    
Wind  
Wind Speed 9 mph (NNW)    
Max Wind Speed 12 mph    
Max Gust Speed -    
Visibility 5 miles    
Events Rain    
Averages and records for this station are not official NWS values.
T = Trace of Precipitation, MM = Missing Value Source: NWS Daily Summary

Daily Weather History Graph

Daily Weather History Graph

Search for Another Location

Airport or City:

Trip Planner

Search our weather history database for the weather conditions in past years. The results will help you decide how hot, cold, wet, or windy it might be!

Date:

Astronomy

Mar. 08, 2014 Rise Set
Actual Time 6:28 AM CST 6:04 PM CST
Civil Twilight 6:00 AM CST 6:31 PM CST
Nautical Twilight 5:29 AM CST 7:03 PM CST
Astronomical Twilight 4:57 AM CST 7:35 PM CST
Moon 11:07 AM CST (3/8) 1:04 AM CST (3/8)
Length of Visible Light 12h 30m
Length of Day
11h 36m
First Quarter, 52% of the Moon is Illuminated
Mar 8
First Quarter
Mar 16
Full
Mar 23
Last Quarter
Mar 30
New
Apr 7
First Quarter

Hourly Weather History & Observations

Time (CST) Temp. Windchill Dew Point Humidity Pressure Visibility Wind Dir Wind Speed Gust Speed Precip Events Conditions
12:15 AM 33.8 °F 27.0 °F 32.0 °F 93% 30.04 in 3.0 mi NNW 8.1 mph - N/A Rain Rain
12:35 AM 33.8 °F 25.8 °F 32.0 °F 93% 30.04 in 2.5 mi NNW 10.4 mph - N/A Rain Light Rain
12:55 AM 33.8 °F 25.3 °F 32.0 °F 93% 30.03 in 2.5 mi North 11.5 mph - N/A   Scattered Clouds
1:15 AM 33.8 °F 26.4 °F 32.0 °F 93% 30.04 in 2.5 mi NNW 9.2 mph - N/A   Mostly Cloudy
1:35 AM 33.8 °F 25.3 °F 32.0 °F 93% 30.04 in 2.5 mi NNW 11.5 mph - N/A   Overcast
1:55 AM 32.0 °F 23.6 °F 32.0 °F 100% 30.05 in 2.5 mi NNW 10.4 mph - N/A   Overcast
2:15 AM 33.8 °F 27.0 °F 32.0 °F 93% 30.06 in 2.5 mi NNW 8.1 mph - N/A   Overcast
2:35 AM 32.0 °F 23.6 °F 32.0 °F 100% 30.05 in 2.5 mi NNW 10.4 mph - N/A   Overcast
2:55 AM 32.0 °F 24.8 °F 32.0 °F 100% 30.05 in 3.0 mi NNW 8.1 mph - N/A   Overcast
3:15 AM 32.0 °F 26.4 °F 32.0 °F 100% 30.07 in 3.0 mi NNW 5.8 mph - N/A   Overcast
3:35 AM 32.0 °F 25.6 °F 32.0 °F 100% 30.07 in 3.0 mi NNW 6.9 mph - N/A   Overcast
3:50 AM 32.0 °F 24.8 °F 32.0 °F 100% 30.08 in 3.0 mi NNW 8.1 mph - N/A   Overcast
4:15 AM 32.0 °F 24.2 °F 32.0 °F 100% 30.08 in 2.5 mi NNW 9.2 mph - N/A   Mostly Cloudy
4:35 AM 32.0 °F 24.2 °F 32.0 °F 100% 30.08 in 2.5 mi NNW 9.2 mph - N/A   Scattered Clouds
4:55 AM 33.8 °F 26.4 °F 32.0 °F 93% 30.09 in 2.5 mi NNW 9.2 mph - N/A   Scattered Clouds
5:15 AM 33.8 °F 25.8 °F 32.0 °F 93% 30.10 in 3.0 mi NNW 10.4 mph - N/A   Scattered Clouds
5:35 AM 32.0 °F 23.6 °F 32.0 °F 100% 30.11 in 3.0 mi NNW 10.4 mph - N/A   Mostly Cloudy
5:55 AM 33.8 °F 25.8 °F 32.0 °F 93% 30.12 in 3.0 mi NNW 10.4 mph - N/A   Overcast
6:15 AM 33.8 °F 25.8 °F 32.0 °F 93% 30.12 in 3.0 mi NNW 10.4 mph - N/A   Mostly Cloudy
6:35 AM 33.8 °F 25.3 °F 32.0 °F 93% 30.13 in 3.0 mi North 11.5 mph - N/A   Scattered Clouds
6:55 AM 33.8 °F 25.3 °F 32.0 °F 93% 30.13 in 3.0 mi North 11.5 mph - N/A   Mostly Cloudy
7:15 AM 33.8 °F 25.3 °F 32.0 °F 93% 30.13 in 2.0 mi North 11.5 mph - N/A   Overcast
7:35 AM 33.8 °F 25.3 °F 32.0 °F 93% 30.14 in 2.0 mi North 11.5 mph - N/A   Overcast
7:55 AM 33.8 °F 25.3 °F 33.8 °F 100% 30.15 in 1.8 mi North 11.5 mph - N/A   Overcast
8:15 AM 33.8 °F 25.3 °F 33.8 °F 100% 30.16 in 1.8 mi North 11.5 mph - N/A   Overcast
8:30 AM 33.8 °F 25.3 °F 33.8 °F 100% 30.17 in 1.8 mi North 11.5 mph - N/A   Overcast
8:55 AM 33.8 °F 25.8 °F 33.8 °F 100% 30.19 in 2.0 mi North 10.4 mph - N/A   Overcast
9:15 AM 33.8 °F 25.3 °F 32.0 °F 93% 30.19 in 2.0 mi North 11.5 mph - N/A   Overcast
9:35 AM 33.8 °F 26.4 °F 33.8 °F 100% 30.20 in 2.0 mi North 9.2 mph - N/A   Overcast
9:55 AM 33.8 °F 25.3 °F 33.8 °F 100% 30.21 in 2.5 mi North 11.5 mph - N/A   Overcast
10:15 AM 33.8 °F 27.0 °F 32.0 °F 93% 30.22 in 2.5 mi North 8.1 mph - N/A   Overcast
10:35 AM 33.8 °F 26.4 °F 32.0 °F 93% 30.22 in 3.0 mi North 9.2 mph - N/A   Overcast
10:55 AM 33.8 °F 26.4 °F 32.0 °F 93% 30.22 in 3.0 mi North 9.2 mph - N/A   Overcast
11:15 AM 35.6 °F 28.6 °F 32.0 °F 87% 30.23 in 4.0 mi North 9.2 mph - N/A   Overcast
11:35 AM 35.6 °F 29.2 °F 32.0 °F 87% 30.23 in 4.0 mi North 8.1 mph - N/A   Overcast
11:55 AM 35.6 °F 28.0 °F 32.0 °F 87% 30.24 in 4.0 mi North 10.4 mph - N/A   Overcast
12:15 PM 35.6 °F 27.5 °F 32.0 °F 87% 30.25 in 4.0 mi NNW 11.5 mph - N/A   Overcast
12:35 PM 35.6 °F 28.0 °F 30.2 °F 81% 30.24 in 4.0 mi North 10.4 mph - N/A   Overcast
12:55 PM 35.6 °F 28.6 °F 30.2 °F 81% 30.24 in 4.0 mi NNW 9.2 mph - N/A   Overcast
1:15 PM 35.6 °F 28.6 °F 30.2 °F 81% 30.23 in 4.0 mi North 9.2 mph - N/A   Overcast
1:35 PM 35.6 °F 28.0 °F 30.2 °F 81% 30.23 in 4.0 mi NNW 10.4 mph - N/A   Overcast
1:55 PM 35.6 °F 28.0 °F 30.2 °F 81% 30.22 in 5.0 mi North 10.4 mph - N/A   Overcast
2:15 PM 33.8 °F 25.8 °F 30.2 °F 87% 30.22 in 5.0 mi North 10.4 mph - N/A   Overcast
2:35 PM 33.8 °F 25.8 °F 30.2 °F 87% 30.23 in 5.0 mi North 10.4 mph - N/A   Overcast
2:55 PM 35.6 °F 28.6 °F 30.2 °F 81% 30.23 in 7.0 mi North 9.2 mph - N/A   Overcast
3:15 PM 35.6 °F 28.0 °F 30.2 °F 81% 30.23 in 7.0 mi North 10.4 mph - N/A   Overcast
3:35 PM 35.6 °F 28.0 °F 30.2 °F 81% 30.23 in 5.0 mi North 10.4 mph - N/A   Haze
3:55 PM 35.6 °F 30.7 °F 30.2 °F 81% 30.24 in 7.0 mi North 5.8 mph - N/A   Overcast
4:15 PM 35.6 °F 29.9 °F 30.2 °F 81% 30.25 in 7.0 mi North 6.9 mph - N/A   Overcast
4:35 PM 35.6 °F 30.7 °F 30.2 °F 81% 30.26 in 7.0 mi North 5.8 mph - N/A   Overcast
4:55 PM 35.6 °F 29.2 °F 30.2 °F 81% 30.26 in 7.0 mi North 8.1 mph - N/A   Overcast
5:15 PM 33.8 °F 29.6 °F 30.2 °F 87% 30.26 in 7.0 mi North 4.6 mph - N/A   Overcast
5:35 PM 33.8 °F 29.6 °F 30.2 °F 87% 30.27 in 7.0 mi North 4.6 mph - N/A   Overcast
5:55 PM 33.8 °F - 30.2 °F 87% 30.28 in 7.0 mi Calm Calm - N/A   Overcast
6:15 PM 33.8 °F - 30.2 °F 87% 30.28 in 7.0 mi Calm Calm - N/A   Overcast
6:35 PM 33.8 °F - 28.4 °F 81% 30.29 in 10.0 mi Calm Calm - N/A   Overcast
6:55 PM 33.8 °F - 28.4 °F 81% 30.29 in 10.0 mi Calm Calm - N/A   Overcast
7:15 PM 33.8 °F 30.8 °F 28.4 °F 81% 30.30 in 10.0 mi WNW 3.5 mph - N/A   Overcast
7:35 PM 33.8 °F 29.6 °F 28.4 °F 81% 30.30 in 10.0 mi NW 4.6 mph - N/A   Overcast
7:55 PM 33.8 °F 27.7 °F 26.6 °F 75% 30.30 in 10.0 mi NW 6.9 mph - N/A   Overcast
8:15 PM 33.8 °F 28.6 °F 26.6 °F 75% 30.30 in 10.0 mi NW 5.8 mph - N/A   Overcast
8:35 PM 33.8 °F 28.6 °F 28.4 °F 81% 30.30 in 10.0 mi NNW 5.8 mph - N/A   Overcast
8:55 PM 33.8 °F 30.8 °F 28.4 °F 81% 30.30 in 10.0 mi NW 3.5 mph - N/A   Overcast
9:15 PM 32.0 °F 28.7 °F 28.4 °F 87% 30.30 in 10.0 mi NW 3.5 mph - N/A   Mostly Cloudy
9:30 PM 32.0 °F - 28.4 °F 87% 30.30 in 10.0 mi Calm Calm - N/A   Scattered Clouds
9:55 PM 30.2 °F - 28.4 °F 93% 30.31 in 10.0 mi Calm Calm - N/A   Clear
10:15 PM 30.2 °F 26.7 °F 26.6 °F 86% 30.30 in 10.0 mi WNW 3.5 mph - N/A   Clear
10:35 PM 30.2 °F 26.7 °F 26.6 °F 86% 30.30 in 10.0 mi WNW 3.5 mph - N/A   Clear
10:55 PM 30.2 °F - 26.6 °F 86% 30.30 in 10.0 mi Calm Calm - N/A   Clear
11:15 PM 30.2 °F 25.4 °F 26.6 °F 86% 30.30 in 10.0 mi WNW 4.6 mph - N/A   Clear
11:35 PM 28.4 °F 24.6 °F 26.6 °F 93% 30.30 in 10.0 mi WNW 3.5 mph - N/A   Clear
11:55 PM 28.4 °F 24.6 °F 26.6 °F 93% 30.30 in 10.0 mi WNW 3.5 mph - N/A   Clear